Regional Weather Roundup
Issued by NWS Sioux Falls, SD

Home | Current Version | Previous Version | Text Only | Print | Product List | Glossary On
Versions: 1 2 3 4 5 6 7 8 9 10 11 12 13 14 15 16 17 18 19 20 21 22 23 24 25 26 27 28 29 30 31 32 33 34 35 36 37 38 39 40 41 42 43 44 45 46 47 48 49 50
000
ASUS43 KFSD 100910
RWRFSD

WEATHER ROUNDUP FOR SE SOUTH DAKOTA/SW MINNESOTA/NW IOWA
NATIONAL WEATHER SERVICE SIOUX FALLS SD
400 AM CDT THU JUL 10 2014

NOTE: "FAIR" INDICATES FEW OR NO CLOUDS BELOW 12,000 FEET WITH NO
SIGNIFICANT WEATHER AND OR OBSTRUCTIONS TO VISIBILITY.


SDZ038>040-050-052>070-101000-
SOUTHEAST SOUTH DAKOTA

CITY           SKY/WX    TMP DP  RH WIND       PRES   REMARKS
CHAMBERLAIN    PTCLDY    58  56  94 SE6       29.95S
HURON          CLEAR     60  57  89 SE5       29.96F FOG
MADISON        FAIR      57  57 100 S5        30.00F
MITCHELL       CLEAR     58  57  97 E5        29.96F
SIOUX FALLS    CLEAR     60  57  89 NE3       29.99F
WINNER         CLOUDY    62  59  90 E10       29.94F
YANKTON        CLEAR     57  57 100 E6        29.98S
$$

MNZ071-072-080-081-089-090-097-098-101000-
SOUTHWEST MINNESOTA

CITY           SKY/WX    TMP DP  RH WIND       PRES   REMARKS
FAIRMONT       CLEAR     57  50  77 S3        30.02S
JACKSON        CLEAR     57  54  88 S5        30.03S
LUVERNE        CLEAR     59  55  88 CALM      30.01S
MARSHALL       CLEAR     59  52  77 MISG      30.00S
MONTEVIDEO     PTCLDY    59  54  82 S3        30.01F
PIPESTONE      CLEAR     63  55  77 SE6       30.00F
REDWOOD FALLS  PTCLDY    61  54  77 CALM      30.00F
TRACY          CLEAR     64  53  68 S5        30.01S
WINDOM         CLEAR     57  54  88 CALM      30.02S
WORTHINGTON    CLEAR     61  57  88 S6        30.02F
$$

IAZ001>003-012>014-020>022-031-032-NEZ013-014-SDZ071-101000-
NORTHWEST IOWA

CITY           SKY/WX    TMP DP  RH WIND       PRES   REMARKS
CHEROKEE       CLEAR     59  59  99 CALM      30.01F
DENISON        CLOUDY    63  61  94 SE3       30.00F
ESTHERVILLE    CLEAR     60  58  92 S6        30.02S FOG
LE MARS        CLEAR     59  59 100 CALM      30.00F
ORANGE CITY    CLEAR     64  57  77 CALM      30.01F
SHELDON        PTCLDY    59  57  94 SE5       30.01S FOG
SIOUX CITY     CLEAR     62  60  93 E6        29.98F
SPENCER        CLEAR     59  57  93 S3        30.02S FOG
STORM LAKE     CLEAR     59  59 100 SE3       30.03F FOG
$$

ABBREVIATIONS USED IN REMARKS
   TC - TEMPERATURE IN CELSIUS
  WCI - WIND CHILL INDEX
   HX - HEAT INDEX
  VSB - VISIBILITY



USA.gov is the U.S. government's official web portal to all federal, state and local government web resources and services.